When you browse on this site, cookies collect data to enhance your experience and personalize the content and advertising you see.
Visit our Privacy Policy to learn more. By continuing to use the site, you agree to this use of cookies and data.
  • în România
  • Lista ţărilor
  • Pe 7 zile
  • Temperatura apei
  • Hartă satelitară
  • Meteo pe hartă
  • Widget-uri
  • user-avatar
    Intrare

    Meteo pe oră la Naftalan

    Astăzi, 18 Iunie, Marţi

    Timp Temperatura Precipitaţii Vânt Presiune Umiditate
    00:00 +27°C° 0 mm 2 m/s 758 mmHg 62%
    01:00 +26°C° 0 mm 1 m/s 758 mmHg 61%
    02:00 +26°C° 0 mm 1 m/s 758 mmHg 61%
    03:00 +26°C° 0 mm 1 m/s 758 mmHg 61%
    04:00 +26°C° 0 mm 1 m/s 758 mmHg 59%
    05:00 +26°C° 0 mm 1 m/s 759 mmHg 57%
    06:00 +27°C° 0 mm 1 m/s 759 mmHg 56%
    07:00 +28°C° 0 mm 1 m/s 759 mmHg 51%
    08:00 +30°C° 0 mm 1 m/s 759 mmHg 46%
    09:00 +31°C° 0 mm 1 m/s 759 mmHg 42%
    10:00 +32°C° 0 mm 2 m/s 759 mmHg 40%
    11:00 +34°C° 0 mm 3 m/s 758 mmHg 39%
    12:00 +34°C° 0 mm 3 m/s 758 mmHg 38%
    13:00 +34°C° 0 mm 4 m/s 758 mmHg 39%
    14:00 +34°C° 0 mm 4 m/s 757 mmHg 40%
    15:00 +34°C° 0 mm 4 m/s 757 mmHg 41%
    16:00 +33°C° 0 mm 4 m/s 757 mmHg 43%
    17:00 +32°C° 0 mm 4 m/s 757 mmHg 46%
    18:00 +31°C° 0 mm 3 m/s 757 mmHg 48%
    19:00 +30°C° 0 mm 3 m/s 757 mmHg 50%
    20:00 +29°C° 0 mm 3 m/s 758 mmHg 53%
    21:00 +28°C° 0 mm 2 m/s 758 mmHg 55%
    22:00 +28°C° 0 mm 2 m/s 758 mmHg 55%
    23:00 +27°C° 0 mm 2 m/s 758 mmHg 55%

    Mâine, 19 Iunie, Miercuri

    Timp Temperatura Precipitaţii Vânt Presiune Umiditate
    00:00 +27°C° 0 mm 2 m/s 758 mmHg 55%
    01:00 +27°C° 0 mm 2 m/s 758 mmHg 55%
    02:00 +26°C° 0 mm 2 m/s 758 mmHg 54%
    03:00 +26°C° 0 mm 2 m/s 758 mmHg 53%
    04:00 +27°C° 0 mm 3 m/s 758 mmHg 50%
    05:00 +27°C° 0 mm 3 m/s 758 mmHg 47%
    06:00 +28°C° 0 mm 3 m/s 758 mmHg 44%
    07:00 +30°C° 0 mm 4 m/s 758 mmHg 41%
    08:00 +32°C° 0 mm 4 m/s 758 mmHg 37%
    09:00 +34°C° 0 mm 4 m/s 758 mmHg 33%
    10:00 +35°C° 0 mm 5 m/s 758 mmHg 32%
    11:00 +35°C° 0 mm 6 m/s 758 mmHg 31%
    12:00 +36°C° 0 mm 6 m/s 758 mmHg 31%
    13:00 +36°C° 0 mm 6 m/s 757 mmHg 32%
    14:00 +36°C° 0 mm 6 m/s 757 mmHg 33%
    15:00 +35°C° 0 mm 6 m/s 757 mmHg 35%
    16:00 +35°C° 0 mm 5 m/s 757 mmHg 36%
    17:00 +34°C° 0 mm 4 m/s 757 mmHg 38%
    18:00 +33°C° 0 mm 3 m/s 757 mmHg 40%
    19:00 +31°C° 0 mm 3 m/s 757 mmHg 46%
    20:00 +30°C° 0 mm 2 m/s 758 mmHg 51%
    21:00 +28°C° 0 mm 2 m/s 758 mmHg 57%
    22:00 +28°C° 0 mm 1 m/s 758 mmHg 59%
    23:00 +27°C° 0 mm 1 m/s 758 mmHg 62%

    Poimâine, 20 Iunie, Joi

    Timp Temperatura Precipitaţii Vânt Presiune Umiditate
    00:00 +25°C° 0 mm 0 m/s 758 mmHg 64%
    01:00 +26°C° 0 mm 1 m/s 758 mmHg 64%
    02:00 +26°C° 0 mm 1 m/s 758 mmHg 63%
    03:00 +26°C° 0 mm 2 m/s 757 mmHg 62%
    04:00 +27°C° 0 mm 2 m/s 758 mmHg 58%
    05:00 +27°C° 0 mm 2 m/s 758 mmHg 54%
    06:00 +28°C° 0 mm 2 m/s 758 mmHg 51%
    07:00 +30°C° 0 mm 2 m/s 758 mmHg 44%
    08:00 +32°C° 0 mm 2 m/s 758 mmHg 37%
    09:00 +34°C° 0 mm 2 m/s 758 mmHg 30%
    10:00 +35°C° 0 mm 2 m/s 758 mmHg 29%
    11:00 +36°C° 0 mm 3 m/s 757 mmHg 27%
    12:00 +37°C° 0 mm 3 m/s 757 mmHg 25%
    13:00 +36°C° 0 mm 4 m/s 757 mmHg 27%
    14:00 +36°C° 0 mm 4 m/s 757 mmHg 30%
    15:00 +35°C° 0 mm 5 m/s 756 mmHg 32%
    16:00 +34°C° 0 mm 4 m/s 756 mmHg 35%
    17:00 +34°C° 0 mm 4 m/s 756 mmHg 38%
    18:00 +33°C° 0 mm 3 m/s 756 mmHg 42%
    19:00 +30°C° 0 mm 2 m/s 757 mmHg 47%
    20:00 +29°C° 0 mm 2 m/s 757 mmHg 52%
    21:00 +28°C° 0 mm 1 m/s 757 mmHg 57%
    22:00 +28°C° 0 mm 2 m/s 757 mmHg 58%
    23:00 +27°C° 0 mm 2 m/s 757 mmHg 59%

    21 Iunie, Vineri

    Timp Temperatura Precipitaţii Vânt Presiune Umiditate
    00:00 +27°C° 0 mm 3 m/s 757 mmHg 60%
    01:00 +27°C° 0 mm 3 m/s 757 mmHg 59%
    02:00 +27°C° 0 mm 3 m/s 757 mmHg 58%
    03:00 +27°C° 0 mm 3 m/s 757 mmHg 57%
    04:00 +27°C° 0 mm 3 m/s 757 mmHg 54%
    05:00 +28°C° 0 mm 3 m/s 757 mmHg 52%
    06:00 +29°C° 0 mm 3 m/s 757 mmHg 49%
    07:00 +30°C° 0 mm 4 m/s 758 mmHg 45%
    08:00 +32°C° 0 mm 4 m/s 758 mmHg 42%
    09:00 +33°C° 0 mm 5 m/s 758 mmHg 38%
    10:00 +34°C° 0 mm 6 m/s 758 mmHg 37%
    11:00 +35°C° 0 mm 6 m/s 758 mmHg 36%
    12:00 +35°C° 0 mm 7 m/s 757 mmHg 35%
    13:00 +35°C° 0 mm 8 m/s 757 mmHg 36%
    14:00 +35°C° 0 mm 8 m/s 757 mmHg 36%
    15:00 +35°C° 0 mm 9 m/s 757 mmHg 37%
    16:00 +34°C° 0 mm 8 m/s 757 mmHg 38%
    17:00 +34°C° 0 mm 8 m/s 757 mmHg 39%
    18:00 +33°C° 0 mm 8 m/s 757 mmHg 40%
    19:00 +32°C° 0 mm 6 m/s 758 mmHg 43%
    20:00 +30°C° 0 mm 5 m/s 758 mmHg 45%
    21:00 +29°C° 0 mm 4 m/s 758 mmHg 48%
    22:00 +29°C° 0.2 mm 4 m/s 759 mmHg 52%
    23:00 +28°C° 0.2 mm 4 m/s 759 mmHg 55%

    22 Iunie, Sâmbătă

    Timp Temperatura Precipitaţii Vânt Presiune Umiditate
    00:00 +28°C° 0.2 mm 4 m/s 759 mmHg 59%
    01:00 +27°C° 0.4 mm 4 m/s 759 mmHg 60%
    02:00 +26°C° 0.4 mm 4 m/s 759 mmHg 60%
    03:00 +26°C° 0.4 mm 4 m/s 759 mmHg 60%
    04:00 +27°C° 0 mm 3 m/s 759 mmHg 57%
    05:00 +27°C° 0 mm 3 m/s 759 mmHg 53%
    06:00 +28°C° 0 mm 3 m/s 759 mmHg 50%
    07:00 +29°C° 0 mm 3 m/s 759 mmHg 45%
    08:00 +31°C° 0 mm 3 m/s 760 mmHg 40%
    09:00 +34°C° 0 mm 3 m/s 760 mmHg 35%
    10:00 +35°C° 0 mm 5 m/s 760 mmHg 35%
    11:00 +35°C° 0 mm 6 m/s 759 mmHg 35%
    12:00 +36°C° 0 mm 7 m/s 759 mmHg 35%
    13:00 +37°C° 0 mm 8 m/s 759 mmHg 35%
    14:00 +37°C° 0 mm 8 m/s 759 mmHg 36%
    15:00 +37°C° 0 mm 8 m/s 758 mmHg 36%
    16:00 +35°C° 0 mm 7 m/s 758 mmHg 39%
    17:00 +34°C° 0 mm 6 m/s 759 mmHg 43%
    18:00 +32°C° 0 mm 6 m/s 759 mmHg 46%
    19:00 +30°C° 0 mm 5 m/s 759 mmHg 50%
    20:00 +30°C° 0 mm 4 m/s 759 mmHg 54%
    21:00 +29°C° 0 mm 2 m/s 760 mmHg 58%
    22:00 +28°C° 0 mm 2 m/s 760 mmHg 60%
    23:00 +28°C° 0 mm 2 m/s 759 mmHg 62%

    23 Iunie, Duminică

    Timp Temperatura Precipitaţii Vânt Presiune Umiditate
    00:00 +27°C° 0 mm 2 m/s 759 mmHg 64%
    01:00 +27°C° 0 mm 2 m/s 759 mmHg 65%
    02:00 +27°C° 0 mm 2 m/s 759 mmHg 66%
    03:00 +26°C° 0 mm 2 m/s 759 mmHg 67%
    04:00 +27°C° 0 mm 2 m/s 759 mmHg 64%
    05:00 +28°C° 0 mm 2 m/s 759 mmHg 60%
    06:00 +28°C° 0 mm 2 m/s 759 mmHg 56%
    07:00 +30°C° 0 mm 2 m/s 759 mmHg 49%
    08:00 +32°C° 0 mm 2 m/s 759 mmHg 43%
    09:00 +34°C° 0 mm 2 m/s 760 mmHg 36%
    10:00 +35°C° 0 mm 3 m/s 759 mmHg 36%
    11:00 +36°C° 0 mm 4 m/s 759 mmHg 35%
    12:00 +37°C° 0 mm 5 m/s 759 mmHg 34%
    13:00 +36°C° 0 mm 5 m/s 759 mmHg 35%
    14:00 +36°C° 0 mm 5 m/s 758 mmHg 36%
    15:00 +36°C° 0 mm 5 m/s 758 mmHg 37%
    16:00 +35°C° 0 mm 5 m/s 758 mmHg 42%
    17:00 +34°C° 0 mm 5 m/s 758 mmHg 46%
    18:00 +33°C° 0 mm 4 m/s 758 mmHg 51%
    19:00 +31°C° 0 mm 3 m/s 759 mmHg 55%
    20:00 +30°C° 0 mm 2 m/s 759 mmHg 60%
    21:00 +29°C° 0 mm 1 m/s 759 mmHg 65%
    22:00 +29°C° 0 mm 1 m/s 759 mmHg 65%
    23:00 +28°C° 0 mm 2 m/s 759 mmHg 64%
    Arată mai mult